Showing default

EGYPTSAT A, 44047

Orbit data source: Space-Track

EGYPTSAT A, 44047 is a payload satellite owned by EgSA (EG) in SSO that was launched on Thu, 21 Feb 2019 UTC via a SOYUZ-2-1B launch vehicle from the Tyuratam Missile And Space Complex (TTMTR). Payload-class satellites include a variety of spacecraft equipped with specific instruments for various scientific and technological missions. These include communications satellites like Starlink; space stations such as the ISS; scientific satellites like the Hubble; Earth observation satellites from companies like Planet Labs, Umbra, and HawkEye 360; GPS; miniature CubeSats for education and research; and military/defense satellites.

Loading next visibility...
Identifier
44047, 2019-008A
Orbit
SSO
Country
Flag of UnknownUnknown / EGYP
Related business
Manufacturer
Yuzhnoe
Mission
Operational Civil Imaging
Bus & Motor
EGYPTSAT, Unknown motor
Mass
~1,050 kg wet, ~1,050 kg dry
Launch date (UTC)
2019-02-21 (7 years ago)
Launch vehicle
SOYUZ-2-1B
Launch site
Tyuratam Missile And Space Complex (TTMTR)
Object type
Payload
Rocket body
Debris
Shape & HBR
Box + 4 Pan + 1 Ant, 1.0 m
Radar Cross Section
0.867 m², Large (>1 m²)

Expand to show TLE details & history
Last TLE update: 6 hours ago

TLE from 6 hours ago
0 EGYPTSAT A
1 44047U 19008A   25294.66758314  .00001202  00000-0  19813-3 0  9999
2 44047  98.0062 357.9433 0000990  82.6299 277.5020 14.72272374358147
Epoch: 2025-10-21T16:01Z
TLE epoch observation values (Epoch: 2025-10-21T16:01:19.183Z)
Latitude
-0.0001°
Longitude
87.26114°
Altitude
656.74 km
Speed
7.529 km/s
True Right ascension
23h 51m 46s
True Declination
0° 00' 00"
Sunlit
Object was in full shadow at epoch
Visualization orbit readout
Latitude
Unknown
Longitude
Unknown
Altitude
Unknown
Speed
Unknown
Apparent Right ascension
Unknown
Apparent Declination
Unknown
Sunlit
N/A
Visualization observer readout
Local Sidereal Time
16:54:44
Azimuth
Unknown
Elevation
Unknown
Doppler factor
Unknown
Orbital elements
Apogee altitude
651.575 km
Perigee altitude
650.183 km
Semi-major axis
7,029.016 km
Eccentricity
0.0001
Inclination
98.0062°
RAAN
357.9433°
Arg. of periapsis
82.6299°
True anomaly
277.49075°
Mean anomaly
277.502°
Eccentric anomaly
277.49638°
Mean motion
3.683 °/min
Orbital period
97.75 mins
BSTAR
0.00019813
Loading maneuver chart data...
Computing Atmospheric mass density...
Loading historical data...
Loading historical data...
Loading historical data...
Loading historical data...
Loading historical data...
Loading historical data...
Loading historical data...
Other satellites on launch #8 in the year 2019 (2019-02-21 UTC)

Documentation

Showing up to 5 results
|